Weather History for Jacksonville, FL

Change the Weather History Date:

Wednesday, April 3, 2013

  Actual Average Record
Temperature  
Mean Temperature 64 °F 65 °F  
Max Temperature 78 °F 77 °F 89 °F (2012)
Min Temperature 50 °F 52 °F 39 °F (1962)
Degree Days  
Heating Degree Days 1 3  
Month to date heating degree days 3 9  
Since 1 July heating degree days 1200 1298  
Cooling Degree Days 0 3  
Month to date cooling degree days 6 7  
Year to date cooling degree days 98 90  
Growing Degree Days 14 (Base 50)    
Moisture  
Dew Point 57 °F    
Average Humidity 74    
Maximum Humidity 100    
Minimum Humidity 47    
Precipitation  
Precipitation 0.26 in 0.11 in 7.35 in (1973)
Month to date precipitation 0.26 0.32  
Year to date precipitation 9.05 10.76  
Snow  
Snow 0.00 in 0.00 in 0.00 in (2002)
Month to date snowfall 0.0 0.0  
Since 1 July snowfall 0.0 T  
Snow Depth 0.00 in    
Sea Level Pressure  
Sea Level Pressure 30.08 in    
Wind  
Wind Speed 8 mph (ENE)    
Max Wind Speed 21 mph    
Max Gust Speed 23 mph    
Visibility 8 miles    
Events Rain    
T = Trace of Precipitation, MM = Missing Value Source: NWS Daily Summary

Daily Weather History Graph

Daily Weather History Graph

Search for Another Location

Airport:

Trip Planner

Search our weather history database for the weather conditions in past years. The results will help you decide how hot, cold, wet, or windy it might be!

Date:

Astronomy

Apr. 03, 2013 Rise Set
Actual Time 7:13 AM EDT 7:47 PM EDT
Civil Twilight 6:48 AM EDT 8:11 PM EDT
Nautical Twilight 6:20 AM EDT 8:39 PM EDT
Astronomical Twilight 5:51 AM EDT 9:08 PM EDT
Moon 2:26 AM EDT (4/3) 1:23 PM EDT (4/3)
Length of Visible Light 13h 22m
Length of Day
12h 33m
Last Quarter, 45% of the Moon is Illuminated
Apr 3
Last Quarter
Apr 10
New
Apr 18
First Quarter
Apr 25
Full
May 2
Last Quarter

Hourly Weather History & Observations

Time (EDT) Temp. Dew Point Humidity Pressure Visibility Wind Dir Wind Speed Gust Speed Precip Events Conditions
12:56 AM 54.0 °F 50.0 °F 86% 30.10 in 10.0 mi Calm Calm - N/A   Scattered Clouds
1:56 AM 53.1 °F 50.0 °F 89% 30.09 in 10.0 mi Calm Calm - N/A   Scattered Clouds
2:56 AM 52.0 °F 50.0 °F 93% 30.07 in 10.0 mi Calm Calm - N/A   Partly Cloudy
3:56 AM 52.0 °F 48.9 °F 89% 30.06 in 10.0 mi Calm Calm - N/A   Partly Cloudy
4:56 AM 51.1 °F 48.0 °F 89% 30.04 in 10.0 mi Calm Calm - N/A   Mostly Cloudy
5:56 AM 51.1 °F 48.9 °F 92% 30.06 in 10.0 mi Calm Calm - N/A   Mostly Cloudy
6:56 AM 50.0 °F 48.0 °F 93% 30.07 in 9.0 mi Calm Calm - N/A   Mostly Cloudy
7:56 AM 52.0 °F 50.0 °F 93% 30.08 in 9.0 mi Calm Calm - N/A   Mostly Cloudy
8:56 AM 62.1 °F 57.9 °F 86% 30.09 in 10.0 mi East 3.5 mph - N/A   Mostly Cloudy
9:56 AM 72.0 °F 59.0 °F 64% 30.08 in 10.0 mi SE 9.2 mph - N/A   Scattered Clouds
10:56 AM 75.0 °F 59.0 °F 57% 30.10 in 10.0 mi SE 8.1 mph - N/A   Mostly Cloudy
11:56 AM 77.0 °F 55.9 °F 48% 30.08 in 10.0 mi SE 9.2 mph - N/A   Mostly Cloudy
12:56 PM 77.0 °F 57.9 °F 52% 30.07 in 10.0 mi ESE 11.5 mph - N/A   Overcast
1:56 PM 75.0 °F 60.1 °F 60% 30.07 in 10.0 mi ENE 12.7 mph - N/A   Overcast
2:56 PM 71.1 °F 61.0 °F 70% 30.07 in 10.0 mi ENE 15.0 mph - N/A   Overcast
3:56 PM 70.0 °F 61.0 °F 73% 30.06 in 10.0 mi ENE 13.8 mph - N/A   Overcast
4:56 PM 68.0 °F 61.0 °F 78% 30.05 in 10.0 mi NE 16.1 mph - N/A   Overcast
5:36 PM 64.4 °F 60.8 °F 88% 30.09 in 4.0 mi North 8.1 mph - 0.01 in Rain Rain
5:56 PM 64.0 °F 61.0 °F 90% 30.09 in 4.0 mi NE 10.4 mph - 0.04 in Rain Light Rain
6:18 PM 62.6 °F 60.8 °F 94% 30.10 in 6.0 mi NE 5.8 mph - 0.01 in Rain Light Rain
6:33 PM 62.6 °F 60.8 °F 94% 30.10 in 2.0 mi NE 8.1 mph - 0.03 in Rain Light Rain
6:56 PM 62.1 °F 60.1 °F 93% 30.11 in 2.0 mi NNE 9.2 mph - 0.06 in Rain Light Rain
7:40 PM 60.8 °F 60.8 °F 100% 30.09 in 3.0 mi NE 9.2 mph - 0.08 in Rain Light Rain
7:51 PM 62.6 °F 60.8 °F 94% 30.08 in 3.0 mi NE 12.7 mph - 0.10 in Rain Light Rain
7:56 PM 61.0 °F 60.1 °F 97% 30.09 in 4.0 mi NE 13.8 mph - 0.11 in Rain Light Rain
8:13 PM 62.6 °F 60.8 °F 94% 30.09 in 5.0 mi ENE 13.8 mph - 0.01 in Rain Light Rain
8:56 PM 63.0 °F 61.0 °F 93% 30.07 in 5.0 mi NE 15.0 mph - 0.04 in   Overcast
9:56 PM 63.0 °F 61.0 °F 93% 30.11 in 6.0 mi East 11.5 mph - N/A   Overcast
10:56 PM 63.0 °F 61.0 °F 93% 30.07 in 6.0 mi ENE 11.5 mph - 0.01 in   Overcast
11:56 PM 64.0 °F 62.1 °F 93% 30.09 in 6.0 mi East 12.7 mph - 0.00 in   Overcast